Weather in Berezovo

Russia / Ryazan Oblast     54°05′30″N   39°17′31″E
temp.,
°C
wind,
m/s
gust,
m/s
humid.,
%
clouds,
%
prec.,
mm/h
press.,
hPa
HPBL,
m
16 october, sat
sat1600:00+5sw6137291 0.0 1020370
03:00+6ssw61372100 0.0 1019445
06:00+6ssw6137097 0.0 1019409
09:00+7ssw61366100 0.0 1019453
12:00+10sw8125220 0.0 1018850
15:00+11sw7124943 0.0 10161118
18:00+9ssw6135611 0.0 1016466
21:00+8sw613675 0.0 1016489
17 october, sun
sun1700:00+8wsw51173100 0.0 1016481
03:00+5wsw37915 0.0 1016155
06:00+4wsw36936 0.0 1016108
09:00+6sw4883100 0.0 1016295
12:00+10wsw5861100 0.0 1016732
15:00+11wsw675721 0.0 10141017
18:00+7sw377633 0.0 1015143
21:00+6wsw39845 0.0 1015187
18 october, mon
mon1800:00+5wsw3889100 0.0 1014184
03:00+4sw4987100 0.0 1013203
06:00+4sw411835 0.0 1013233
09:00+5wsw5117682 0.0 1012436
12:00+9wsw7116475 0.0 10111126
15:00+8wsw71167100 0.0 10111060
18:00+7w61074100 0.0 1011850
21:00+4w3786100 0.0 1012182
19 october, tue
tue1900:00+4wsw3880100 0.0 1012232
03:00+2w388241 0.0 1012209
06:00+1wnw379038 0.0 1013163
09:00+3wnw478662 0.0 1014393
12:00+3nw4686100 0.0 1015641
15:00+2nw479365 0.2 1016371
18:00+2nw4771100 0.0 1017760
21:00+3nw3669100 0.1 1018366
20 october, wed
wed2000:00+1wnw4791100 0.1 1019319
03:00+1nw388878 0.2 1020273
06:00−1nw489517 0.0 1021251
09:00+1nw5780100 0.0 1023721
12:00+2wnw3471100 0.0 1024604
15:00+3w4558100 0.0 10241253
18:00+1sw357291 0.0 102483
21:000ssw487699 0.0 1023171